Wind_Speed
6 5 7 8 11 12 13 15 16 16 18 20 18 19 21 20 17 17 17 21 25 27 27 32 28 22 12 30 52 46 40 32 29 28 23 20 20 20 20 17 17 17 21
6 5 5 8 11 13 15 16 16 16 17 18 19 19 19 22 19 17 16 15 20 26 28 34 35 22 15 16 50 50 43 37 39 37 31 20 21 24 21 21 21 20 20
9 6 5 8 11 12 16 18 18 18 16 18 19 19 20 18 17 15 17 15 16 21 27 32 34 28 25 8 30 54 51 45 43 43 26 13 14 28 28 27 25 23 23
9 6 7 8 10 13 16 18 19 18 17 17 18 18 19 20 20 21 19 20 16 16 21 27 33 36 26 20 14 44 57 55 53 44 38 24 17 16 17 35 33 28 25
11 8 8 10 11 13 16 17 18 18 18 18 17 18 17 18 21 22 22 22 19 17 18 21 27 31 39 31 21 29 51 60 57 54 48 35 26 19 18 20 41 37 34
12 11 11 10 10 11 13 16 17 18 18 18 17 17 18 20 22 23 24 23 24 19 17 17 24 35 38 40 24 29 49 53 61 57 54 54 47 36 27 20 27 43 41
18 13 11 11 12 13 13 15 16 17 18 18 18 18 18 19 21 22 24 24 26 23 20 18 21 27 42 43 31 26 49 49 52 63 59 56 56 44 35 24 21 23 29
18 17 13 12 13 14 14 15 15 16 17 19 19 19 18 17 19 21 24 26 26 26 23 23 24 29 33 48 43 27 47 56 53 52 61 60 56 54 44 34 26 14 22
19 20 15 14 14 14 15 15 15 16 17 19 20 21 20 20 19 21 23 26 26 26 26 26 25 28 31 34 36 36 36 55 55 54 52 55 59 56 52 37 26 22 21
21 23 19 16 15 15 16 16 16 15 17 19 21 21 23 23 22 22 23 25 25 28 28 27 28 27 31 32 34 38 34 51 59 58 56 49 51 54 52 45 33 25 22
28 27 23 19 17 17 18 18 18 16 17 19 21 23 24 26 25 23 23 25 27 27 29 29 29 30 29 32 31 34 31 47 52 57 60 57 57 54 51 46 39 31 25
27 29 26 22 19 20 20 20 19 18 17 19 21 24 25 27 28 27 26 27 29 29 30 31 31 31 31 30 30 34 29 36 50 53 56 61 59 54 53 47 44 37 29
25 29 29 27 23 23 23 22 20 19 18 18 21 24 27 28 29 31 30 29 28 30 31 32 33 31 31 31 35 33 33 38 39 51 56 62 61 60 56 51 49 41 35
29 31 32 32 28 25 24 23 22 20 20 20 21 24 27 28 29 31 32 31 30 31 31 32 34 34 32 32 36 36 30 38 40 43 58 60 58 56 54 57 54 55 47
29 32 33 32 30 26 25 23 21 20 21 21 22 23 26 28 27 30 31 32 31 31 31 32 33 34 33 32 34 38 33 32 41 40 57 58 55 55 56 55 48 53 58
26 29 29 30 29 26 23 22 20 20 21 22 22 24 25 26 27 28 31 32 31 31 31 32 34 34 35 32 32 39 40 27 43 45 51 55 55 54 52 52 48 46 52
26 26 28 26 25 23 21 20 20 20 21 23 23 23 24 25 27 28 30 32 32 32 33 33 34 36 37 33 33 37 43 36 35 53 45 52 52 51 55 50 50 44 43
22 23 26 24 24 21 20 20 19 20 21 22 23 22 24 25 26 28 29 31 32 32 33 34 34 35 37 35 34 35 42 44 27 51 47 47 51 52 53 49 47 45 40
23 23 23 23 21 18 18 18 18 20 21 22 23 23 24 26 27 28 29 30 33 33 33 34 34 35 37 35 33 34 40 49 30 49 47 42 45 42 49 49 45 43 42
23 24 23 21 19 17 16 17 18 20 20 22 23 24 24 26 27 28 29 31 32 35 35 35 35 34 37 34 31 31 37 46 36 46 52 53 46 46 45 45 43 46 46
21 21 19 17 16 15 15 16 18 19 20 22 24 25 25 26 27 28 28 31 32 33 35 35 35 33 33 33 30 30 34 42 42 40 53 54 50 50 43 42 40 45 45
19 18 16 14 14 13 14 14 18 19 21 23 24 25 26 26 27 27 28 29 30 32 34 35 35 32 30 28 29 32 32 40 46 32 54 52 51 49 41 40 38 40 40
14 14 13 11 11 12 13 15 18 21 22 24 25 25 26 26 27 26 27 29 28 28 31 32 32 33 30 29 30 31 29 40 47 37 52 54 45 48 40 41 42 45 43
13 12 10 9 9 11 13 16 19 20 23 25 25 26 27 27 26 26 27 25 27 28 31 32 33 36 35 33 30 29 27 29 43 49 45 60 52 47 45 43 44 41 43
11 11 11 12 13 14 16 17 18 20 23 25 25 26 26 26 29 28 26 26 28 27 33 35 37 38 38 36 30 32 33 27 22 25 49 59 55 55 50 48 48 42 44
12 12 13 14 15 17 17 17 18 20 23 25 25 25 26 28 28 28 30 28 26 29 30 32 31 34 32 34 33 33 32 33 31 29 30 58 62 52 55 48 48 47 46
Wind_Direction
260 296 317 323 328 328 326 326 323 316 313 309 310 308 307 305 308 314 314 318 305 308 312 292 288 297 221 208 221 215 210 194 186 176 180 185 191 196 192 205 219 217 208
246 270 304 327 330 331 328 330 331 328 320 313 307 306 306 304 307 308 308 305 307 295 282 274 285 295 306 204 215 219 201 197 196 198 187 187 196 194 200 202 205 212 213
232 253 297 322 329 331 329 331 332 333 328 317 313 305 301 300 299 292 291 293 281 291 287 285 282 277 292 284 216 221 211 193 206 212 189 172 211 207 203 198 202 210 218
225 249 289 309 321 328 331 332 332 334 329 324 318 315 312 309 302 298 291 282 278 276 282 282 278 271 275 283 251 213 218 217 216 211 206 212 194 184 208 220 216 211 215
217 236 265 299 318 330 332 334 335 335 331 326 323 317 312 305 300 298 293 288 284 274 270 282 277 270 265 269 282 231 207 226 224 222 218 210 208 198 204 208 217 220 218
215 240 275 294 308 320 329 331 334 336 336 330 327 322 314 310 304 302 297 293 285 277 263 262 262 261 265 266 287 265 214 216 227 228 229 220 215 208 208 212 224 221 224
221 242 269 286 299 309 321 328 331 336 337 336 331 326 320 312 309 303 299 296 291 285 276 263 255 253 257 263 264 274 233 217 222 228 227 228 228 223 217 217 213 212 219
229 237 255 275 287 297 306 316 324 331 336 337 337 332 325 318 309 303 298 294 292 290 283 272 255 244 242 251 258 276 245 230 227 219 225 230 229 228 224 221 217 192 210
223 236 245 262 278 287 293 302 312 323 329 333 337 336 330 323 315 307 300 297 291 289 281 274 265 256 245 244 251 254 262 237 225 224 217 223 231 230 227 224 226 227 216
224 230 237 255 273 284 286 292 300 311 320 326 331 334 332 327 321 314 306 299 294 285 282 277 271 263 252 249 241 249 270 243 230 229 225 218 224 233 228 222 222 224 232
232 230 233 248 272 284 283 285 291 300 310 318 324 329 331 327 323 318 311 302 295 290 285 282 275 269 262 251 234 238 259 244 242 238 230 226 228 227 231 224 221 221 219
238 233 234 244 262 278 280 279 282 291 301 310 318 323 326 325 321 318 314 308 301 295 288 285 279 270 266 258 244 230 241 247 234 240 236 231 235 230 234 220 217 219 216
236 234 237 245 258 273 276 274 275 284 295 304 312 318 320 321 318 316 315 312 305 297 289 284 282 278 272 262 250 234 231 243 249 240 237 236 233 237 231 224 215 218 218
242 241 243 247 256 263 267 267 269 278 290 300 307 312 315 316 316 314 314 313 308 300 293 287 284 282 274 264 257 246 233 237 249 254 246 238 238 238 240 235 220 216 224
244 244 244 248 257 258 258 259 266 277 288 298 305 308 310 313 314 312 312 312 309 303 295 290 283 281 280 270 263 253 242 235 239 252 244 242 246 245 241 234 231 229 225
237 246 253 248 249 251 249 255 263 275 286 295 302 306 307 311 313 312 310 311 309 305 298 290 285 282 279 272 263 256 247 235 238 244 246 244 245 248 240 233 227 237 230
238 234 245 242 242 242 246 255 266 276 285 293 300 303 305 309 311 311 310 311 310 306 300 295 290 284 279 275 268 258 252 247 232 240 246 243 243 244 236 233 230 232 234
239 232 236 229 231 235 243 255 268 277 284 291 296 300 304 307 309 309 310 309 309 307 303 299 294 286 281 278 276 268 255 246 229 238 240 250 244 244 236 231 227 228 226
240 232 226 224 226 232 245 259 269 277 284 291 294 300 304 305 307 308 310 309 309 307 304 300 297 291 286 282 279 274 260 250 231 233 239 242 252 245 238 227 222 224 222
219 215 218 216 224 237 250 264 273 280 287 291 296 300 302 303 304 307 308 308 307 306 305 302 298 295 290 285 279 278 267 253 235 230 235 241 246 246 234 221 219 219 212
209 209 210 218 226 238 254 268 276 282 288 292 296 299 301 301 303 305 307 307 306 305 304 303 300 297 293 289 284 280 267 253 240 227 228 234 242 248 235 225 224 215 207
194 199 209 218 233 248 263 274 281 286 289 293 296 299 300 301 304 305 306 305 307 306 305 305 302 300 297 292 287 280 265 246 241 245 226 227 240 242 234 223 217 216 208
191 203 210 228 249 260 269 275 282 289 291 293 296 299 300 301 304 306 307 306 305 304 304 304 303 305 301 293 293 282 270 254 246 239 222 222 229 238 228 217 212 214 210
197 215 222 235 248 267 274 280 284 287 290 293 296 299 301 303 306 306 305 303 300 304 304 305 305 304 301 299 299 291 279 262 250 235 217 220 223 233 222 215 216 210 208
215 231 242 249 258 268 277 280 284 287 288 292 296 299 301 302 306 306 304 299 298 298 300 299 299 299 298 297 297 295 296 282 254 238 218 218 222 221 217 213 207 203 204
237 246 254 261 269 274 275 279 284 286 289 291 295 299 299 302 306 306 305 302 294 298 294 294 293 292 290 292 293 292 291 285 280 272 217 202 213 214 214 208 205 202 204
Height
1525 1523 1522 1521 1519 1517 1515 1512 1510 1506 1503 1503 1501 1499 1497 1496 1494 1490 1491 1488 1490 1494 1496 1497 1505 1507 1504 1507 1512 1518 1522 1529 1535 1540 1545 1548 1551 1554 1556 1560 1560 1560 1561
1523 1522 1520 1518 1516 1514 1512 1510 1507 1504 1501 1498 1498 1497 1497 1494 1491 1489 1487 1489 1488 1491 1495 1498 1497 1495 1500 1501 1505 1511 1515 1522 1524 1529 1539 1546 1550 1548 1552 1555 1558 1559 1559
1519 1519 1517 1515 1514 1512 1509 1507 1505 1502 1499 1497 1494 1493 1492 1491 1492 1491 1489 1488 1493 1490 1489 1490 1494 1499 1497 1496 1502 1502 1506 1510 1520 1522 1529 1538 1541 1543 1547 1549 1553 1556 1556
1515 1514 1513 1513 1511 1510 1508 1505 1503 1500 1498 1495 1492 1490 1487 1483 1484 1482 1486 1488 1488 1484 1484 1486 1487 1493 1490 1492 1493 1499 1498 1502 1509 1517 1524 1528 1530 1535 1541 1544 1546 1550 1553
1511 1512 1511 1510 1508 1507 1506 1504 1501 1499 1496 1493 1490 1488 1485 1483 1481 1481 1481 1481 1479 1481 1481 1478 1479 1484 1488 1495 1496 1494 1492 1495 1502 1507 1516 1522 1524 1527 1531 1533 1537 1543 1545
1506 1506 1506 1505 1505 1505 1504 1502 1500 1497 1495 1492 1489 1486 1483 1482 1480 1477 1474 1476 1476 1477 1475 1475 1478 1480 1482 1485 1485 1490 1492 1490 1494 1502 1507 1510 1514 1518 1522 1528 1530 1534 1538
1501 1501 1501 1501 1501 1501 1500 1499 1497 1495 1493 1491 1487 1485 1482 1480 1477 1476 1474 1470 1469 1466 1467 1465 1469 1469 1474 1473 1484 1484 1486 1488 1489 1490 1497 1504 1508 1513 1518 1523 1527 1530 1535
1495 1496 1497 1497 1497 1496 1495 1495 1494 1491 1489 1488 1485 1483 1481 1478 1477 1475 1472 1469 1465 1463 1460 1463 1464 1466 1466 1470 1476 1480 1479 1483 1484 1488 1486 1494 1500 1506 1511 1517 1522 1528 1530
1489 1490 1491 1492 1492 1491 1491 1490 1489 1487 1485 1484 1482 1479 1476 1475 1473 1471 1468 1465 1464 1459 1462 1460 1458 1458 1458 1464 1467 1472 1473 1472 1478 1481 1486 1485 1491 1497 1504 1513 1519 1523 1524
1483 1484 1485 1486 1487 1487 1485 1485 1483 1482 1480 1478 1476 1475 1472 1469 1467 1466 1464 1461 1458 1458 1455 1453 1452 1452 1453 1455 1459 1463 1468 1468 1470 1472 1476 1479 1483 1490 1497 1506 1514 1518 1522
1475 1477 1479 1480 1480 1480 1479 1479 1478 1477 1476 1473 1471 1468 1467 1464 1462 1459 1457 1456 1454 1451 1446 1446 1445 1446 1447 1452 1452 1457 1460 1459 1461 1463 1468 1472 1477 1482 1490 1499 1508 1513 1517
1468 1470 1472 1473 1474 1473 1473 1473 1472 1471 1470 1469 1466 1463 1461 1458 1455 1453 1452 1449 1444 1441 1441 1439 1440 1441 1442 1442 1441 1448 1451 1453 1455 1456 1459 1464 1469 1473 1483 1488 1498 1506 1512
1462 1463 1465 1465 1466 1467 1467 1467 1467 1466 1465 1463 1461 1459 1455 1453 1450 1447 1444 1443 1439 1435 1432 1433 1433 1430 1431 1430 1433 1436 1439 1443 1446 1449 1452 1456 1460 1467 1470 1479 1489 1497 1505
1454 1455 1456 1457 1458 1460 1461 1461 1461 1460 1459 1458 1456 1454 1451 1447 1445 1441 1437 1434 1432 1429 1426 1424 1420 1420 1422 1423 1424 1425 1430 1434 1435 1441 1444 1448 1449 1454 1462 1470 1476 1486 1493
1447 1448 1448 1449 1451 1453 1454 1455 1455 1454 1453 1453 1451 1449 1446 1443 1440 1437 1432 1429 1426 1424 1421 1418 1416 1414 1411 1412 1413 1418 1419 1422 1423 1432 1437 1439 1441 1446 1452 1460 1467 1475 1484
1438 1439 1441 1443 1443 1445 1447 1448 1448 1449 1447 1447 1446 1444 1441 1437 1435 1432 1428 1424 1421 1418 1414 1409 1407 1405 1406 1406 1406 1408 1408 1409 1412 1423 1427 1430 1434 1438 1444 1451 1458 1465 1471
1429 1431 1432 1434 1436 1438 1440 1441 1441 1441 1441 1440 1439 1438 1435 1431 1429 1427 1423 1419 1415 1412 1408 1403 1399 1395 1395 1398 1398 1401 1399 1402 1403 1414 1417 1420 1423 1431 1436 1441 1448 1456 1461
1421 1423 1425 1427 1429 1431 1434 1435 1435 1435 1435 1435 1434 1433 1429 1426 1423 1421 1417 1413 1410 1406 1402 1397 1394 1390 1387 1389 1390 1390 1389 1392 1392 1400 1407 1411 1415 1421 1426 1432 1438 1445 1452
1413 1415 1417 1420 1423 1426 1428 1429 1430 1429 1428 1428 1428 1426 1423 1420 1417 1414 1411 1408 1402 1398 1395 1390 1386 1383 1380 1381 1381 1381 1380 1383 1381 1389 1395 1401 1406 1411 1416 1422 1428 1435 1445
1406 1407 1411 1414 1417 1420 1421 1423 1424 1423 1422 1421 1420 1418 1416 1414 1411 1408 1405 1401 1397 1391 1387 1382 1379 1375 1370 1370 1372 1373 1373 1372 1371 1379 1382 1390 1396 1402 1408 1413 1418 1425 1437
1401 1403 1407 1411 1413 1414 1416 1418 1419 1417 1416 1414 1412 1411 1410 1409 1406 1401 1399 1395 1391 1386 1381 1375 1371 1367 1365 1362 1362 1364 1362 1360 1363 1368 1370 1377 1386 1391 1398 1404 1409 1416 1428
1398 1400 1404 1407 1409 1409 1410 1410 1414 1413 1410 1408 1406 1405 1404 1402 1400 1395 1392 1389 1385 1380 1374 1369 1363 1360 1357 1354 1353 1353 1352 1353 1353 1357 1359 1368 1373 1382 1388 1394 1403 1412 1417
1397 1398 1400 1402 1404 1404 1405 1406 1407 1407 1406 1403 1401 1399 1397 1396 1393 1389 1385 1382 1379 1375 1369 1364 1357 1352 1349 1347 1345 1343 1343 1342 1344 1345 1351 1358 1364 1373 1380 1387 1396 1402 1409
1394 1396 1397 1398 1400 1399 1400 1401 1402 1400 1401 1398 1395 1393 1390 1389 1386 1383 1380 1376 1373 1368 1364 1359 1352 1347 1342 1339 1337 1333 1331 1328 1331 1337 1340 1347 1354 1363 1370 1378 1385 1391 1401
1390 1393 1393 1394 1394 1394 1395 1397 1397 1395 1395 1393 1390 1386 1384 1383 1379 1376 1373 1370 1366 1364 1359 1353 1348 1342 1335 1333 1332 1329 1325 1321 1319 1322 1331 1333 1341 1353 1360 1366 1374 1381 1392
1388 1389 1389 1390 1389 1390 1391 1392 1391 1390 1389 1387 1384 1382 1379 1376 1373 1369 1363 1361 1359 1355 1352 1347 1342 1334 1329 1326 1322 1319 1318 1316 1314 1313 1313 1318 1330 1341 1352 1355 1364 1371 1383